CAPE
2025 2341 1907 1962 1832 1804 1670 1726 2006 2046 2111 2460 1808 2036 2345 2618 2640 2622 2506 2204 1961 1567 890 870 696 464 249 210 5 25 1325 1616 1600 1598 1680 1877 2550 3031 3186 2965 2932 2833 2670 2778 2690 2536 2437 2465 2289 2457 2509 2509 2585 2919 2985 3107 3132 3241 3348 3430 3522 3608 3694 3744 3836 3854 3866 3756 3656 3591 3718 3819 3802 3751 3684 3810 3747 3725 3651 3658 3597 3546 3387 3321 3143
1676 1921 2195 1842 1778 1839 1644 1710 1804 1949 2236 2447 2425 2604 2674 2730 2577 2167 2244 2070 1630 1056 1377 372 454 599 540 26 718 843 172 1497 1760 1607 1490 1868 2288 3094 3369 3234 2901 3056 2885 2818 2867 2692 2712 2842 2671 2773 2822 2957 3227 3082 3160 3248 3377 3494 3539 3607 3722 3876 3941 4008 4064 4091 4062 3978 4146 4196 4089 4068 4047 3913 4005 3936 3942 3980 3686 3721 3851 3793 3693 3534 3458
1314 1507 1813 1626 1476 1574 1572 1485 1673 1888 2237 2415 2653 2630 2521 2507 2618 2956 2083 2035 1988 2271 1854 1216 304 496 525 431 799 940 863 1122 1864 1690 1664 1694 1960 2737 3424 3390 3161 3127 3075 2989 2794 2808 3028 2894 3007 2930 3130 3231 3201 3434 3296 3358 3474 3557 3703 3826 3917 4008 4078 4122 4157 4257 4236 4313 4342 4411 4431 4480 4274 4180 4212 4174 4304 4122 4210 3966 3497 3327 3219 3159 3126
1172 1290 1541 1590 1617 1697 1474 1635 1775 1728 2183 2204 2292 2347 2349 1915 2245 2789 2342 2818 2246 1307 1025 1346 624 624 539 567 629 938 1102 848 1826 2160 1993 1786 1795 2362 2897 3121 3262 3184 3335 2975 3088 3079 2890 2883 3069 3237 3255 3315 3514 3393 3470 3424 3442 3634 3818 3972 4142 4194 4288 4202 4542 4394 4316 4424 4522 4512 4443 4370 4314 4213 4392 4617 4546 4086 3375 2875 2696 2652 2833 2587 2466
1128 1272 2271 1410 1647 1708 1530 1817 1523 1589 1933 1788 2151 1838 2589 2223 3130 3640 2856 2422 2086 1489 1249 1345 810 624 346 390 435 894 1038 966 1382 2276 2031 1244 1393 1851 2234 2696 3067 3392 3248 3154 3095 3209 3278 3311 3218 3239 3339 3333 3128 3417 3682 3698 3757 3776 4008 4144 4392 4622 4434 4304 4368 4407 4444 4470 4523 4494 4384 4329 4383 4422 4480 4238 3886 3023 2700 2651 2537 2449 2351 2210 2063
1410 1470 1709 1544 1549 1241 1255 1413 1824 2101 2015 3787 3386 4242 3042 2869 2623 2718 3556 3570 2234 1745 1388 977 507 696 569 672 871 806 896 937 647 1705 1659 1376 1460 1532 1732 2072 2200 2951 3081 3421 3469 3604 3670 3357 3378 3575 3464 3463 3631 3647 3614 3772 4015 4230 4276 4420 4702 4804 4627 4472 4470 4436 4556 4615 4570 4452 4520 4391 4510 4460 4025 4188 3822 2925 2626 2510 2611 2510 2027 1626 1451
1979 2242 1458 1243 1255 1237 1528 1807 1982 3209 3822 4032 3294 3402 3093 2670 4077 2610 2408 2530 2771 2076 1649 888 704 740 1029 699 1211 1082 712 546 670 982 1249 1706 1540 1472 1356 1464 1694 2049 2598 2848 3768 3807 3849 3843 3790 3667 3664 3773 3748 4009 4113 4179 4140 4201 4618 4876 4874 4861 4941 4871 4786 4698 4727 4736 4696 4612 4548 4575 4491 4274 3965 3660 3439 2747 2410 2089 1928 1650 1438 1569 1460
2498 2787 1358 1563 1357 1817 2224 3284 3665 3577 3928 4029 4226 3059 2608 3755 3448 3458 2928 2967 3596 2050 1683 573 708 698 351 447 832 1593 910 847 798 821 903 1607 1814 1961 1760 1678 1701 1731 3032 2357 2382 2860 4053 3892 3951 3882 3928 3878 3968 4049 4217 4473 4644 4666 4740 4874 4867 4841 4899 4928 4910 5077 5185 5098 4994 4780 4462 4308 4165 4107 3830 3539 3124 2603 2405 1947 1696 1609 1696 1652 1610
3012 3296 2788 1947 1704 1668 2498 2990 3901 3441 3103 3083 3054 3793 3100 3219 3161 4171 3791 3566 2803 2720 2137 1236 927 608 198 712 970 963 884 1223 1140 564 757 1598 1998 2270 2363 2621 2776 3577 3192 1963 2499 1918 2837 3708 4064 4122 4357 4427 4431 4434 4760 4707 4593 4946 4924 4830 4705 4818 4940 5036 5018 5232 5304 5157 5160 4991 4493 4363 4238 3960 3744 3436 3299 2608 2432 2024 1742 1754 1799 1850 1815
2728 3391 3101 3570 1443 1969 3386 3949 3758 3522 3342 3077 2919 3399 3105 3164 3101 3641 4686 4365 3742 2895 2590 1769 755 418 281 119 729 1184 970 1168 989 2535 694 963 1446 1617 2131 2589 3332 3834 3575 2295 2473 2098 2030 3176 3853 3985 4364 4403 4456 4429 4899 5193 5165 4741 4769 4727 4746 4801 4933 5112 5168 5250 5341 5134 5113 4922 4695 4370 4156 4090 3803 3596 3315 2808 2616 2025 1996 1923 1907 1882 1941
2663 3303 3366 2464 2791 2982 3250 3782 3841 3602 3164 3182 3234 3986 4268 3522 2850 3166 3584 3656 3814 3715 3344 2361 748 323 614 444 1047 1131 919 954 1312 635 600 617 850 1430 1584 2109 2505 3098 3429 2886 2540 2609 2146 2409 2381 2710 2994 3924 4738 5341 4754 4808 4828 4953 5155 4608 4644 4604 5036 5206 5155 5383 5413 5024 4886 4890 4617 4280 4119 4066 3888 3435 3234 2951 2617 2222 2214 2127 2032 1970 1960
2832 3824 3337 3660 2936 2785 3286 3875 4354 4240 3525 3242 2929 3410 3825 3452 3732 3955 3219 3605 3319 2930 2554 1794 911 382 449 362 854 755 731 806 748 960 1224 520 1047 1255 985 1373 1152 1417 1907 2855 3009 2876 2412 2400 2224 2419 2755 2730 3137 4252 5382 5752 5504 5585 5415 5042 4870 4776 4852 5271 5283 5284 5310 5362 4967 4767 4712 4404 4186 3932 3857 3469 3297 3062 2696 2210 2262 2241 2135 2078 2035
3042 3351 3422 4046 3368 3288 3418 3642 4168 4093 4362 3408 3125 3214 3859 3959 4322 4670 4852 3426 3037 2716 2094 1887 521 448 1773 644 548 766 1377 1386 774 786 556 436 645 1110 1187 1157 1082 1122 1355 2012 3182 2835 2510 2299 2280 2344 2444 2806 3008 3706 4247 4273 4977 5341 5381 5472 5129 4750 4927 5392 5472 5256 5280 5276 4880 4631 4640 4662 4389 4164 3970 3750 3434 3133 2953 2360 2273 2252 2203 2149 2122
3035 3439 2976 2902 3422 3583 3255 3464 4100 3875 3905 4006 4342 4288 4396 4426 4378 3388 4825 3916 3536 3119 2003 1382 1369 1209 715 651 471 636 846 510 786 801 411 250 461 745 1036 574 879 989 1051 1086 2525 2611 2678 2788 2907 2912 2850 3130 3692 3432 3033 3387 4346 5236 5778 5806 5233 5225 5264 5457 5475 5217 5251 5191 5039 4998 4764 4307 4296 4073 4019 3821 3474 3209 3140 2888 2370 2282 2240 2205 2182
3015 3202 3216 3866 3726 3526 3784 3828 3577 5099 3983 3475 3431 3606 4009 3430 3650 3182 3373 3422 3515 2774 1747 907 1652 2057 1351 1480 565 768 811 480 533 687 597 500 234 571 722 527 650 857 1054 736 1402 2127 2583 2636 2635 1980 1739 3668 4048 3800 2876 3101 3241 4203 4856 4730 5046 5255 5512 5482 5275 5359 5238 5188 5214 5002 4846 4778 4592 4374 4239 3972 3853 3440 3290 3147 2746 2392 2262 2229 2203
2913 2989 2891 2996 3614 4180 3738 3401 3437 4677 4363 4104 3738 3681 3656 3788 3790 3712 3614 2573 2712 2864 2831 1724 1866 2067 918 1239 596 1107 1241 1407 1582 1180 587 657 674 8 175 386 495 619 893 910 1137 1224 1403 1242 1058 1404 1852 3577 3767 3291 3209 3244 3974 5696 6252 5240 4518 4846 5470 5700 5838 5720 5356 5391 5309 5012 4940 4790 4567 4545 4529 4397 4026 3828 3490 3348 3123 2724 2354 2200 2161
2569 2522 3189 3155 3494 3110 3644 3859 4175 4496 4632 4069 4088 4204 3557 3033 3314 3249 3512 3089 2629 3716 3095 2162 2036 2582 2463 1585 785 666 887 1223 1745 1337 2083 197 292 0 336 198 270 176 618 712 808 1002 842 818 1014 2050 2575 2938 2662 2116 3281 4218 4109 4860 5758 5526 5034 4074 4017 4984 5430 5546 5527 5548 5502 5398 5140 4967 4866 4815 4767 4659 4412 4205 4013 3508 3277 2957 2452 2277 2181
2239 2435 3327 3176 2612 2675 2638 3174 4222 3995 4072 3873 3376 2737 2355 3079 3045 3128 3578 3316 3695 3462 3111 3004 2727 3825 2625 2067 721 718 1088 1531 1402 881 986 2423 432 124 29 18 87 545 549 631 711 800 894 591 1490 2114 3088 2858 2830 2714 3136 3724 4223 4289 4964 4394 5407 4631 3932 3910 4092 5040 5403 5518 5689 5586 5411 5112 4955 5001 4888 4872 4810 4478 4209 3958 3562 3058 2467 2310 2161
2010 2580 3084 3121 2901 2924 2691 3431 3963 3865 4515 4518 3448 3879 3341 2680 3788 3743 3566 4673 3865 3294 2715 2860 2676 2233 1908 2053 3478 3359 2262 1649 1308 2370 908 1011 1032 976 120 3 79 220 575 652 742 727 562 620 1341 1847 2355 2540 2729 2807 2563 3209 3740 4112 5742 5450 4878 5462 4613 3666 3556 4155 4665 4990 5443 5440 5384 5219 5052 5038 5018 4838 4846 4688 4309 4004 3608 3261 2712 2300 2175
1599 2595 2984 3208 3024 3028 3180 3789 3107 3217 3630 4765 4279 3220 2958 3644 3992 3939 4848 4767 3412 3491 2905 3112 3266 2404 2608 2194 2325 2705 1866 1525 1960 884 1009 1215 1080 1322 444 159 191 137 318 284 332 312 507 597 869 1497 2062 2446 2414 2129 2197 2645 3125 3348 4052 5734 5512 5877 4889 3968 3615 3477 3984 4633 4974 5077 4934 4969 5050 5024 4834 4814 4866 4773 4631 4304 4000 3531 2855 2366 2232
1686 2774 2866 3068 3538 3180 3753 3704 2967 3297 4158 3904 3736 3069 2809 3142 3683 3887 3423 3444 4345 4889 3572 2893 3314 2910 2460 2282 2366 2395 2437 1904 1020 1671 1276 1165 1127 865 398 158 802 624 102 56 449 353 404 398 849 1228 1904 2356 2313 2460 2026 2127 1690 3459 3426 3043 4732 4304 3763 3950 3467 3119 3880 4398 4677 4798 4908 4922 4926 4897 4879 4927 4872 4809 4816 4704 4457 4030 3158 2675 2307
2022 2477 2723 3023 3626 3447 3678 3568 3316 3161 3667 3817 3018 3017 3341 3251 3399 3394 3217 3217 3933 3949 4329 3566 3134 3297 2056 4179 2072 2452 2210 1693 1478 1123 1154 1535 966 1017 405 304 417 610 1300 610 500 359 324 396 471 990 1555 1842 1640 1753 1813 1934 2442 1634 3776 3446 2909 3061 3783 4251 3423 3753 4311 4796 4911 4722 4542 4600 4636 4655 4645 4698 4691 4705 4697 4706 4619 4169 3429 2958 2422
2241 2585 2828 2662 3177 3642 3622 3615 3521 3797 4326 3009 3478 2846 3098 2920 3339 3479 3309 3151 4131 3476 3753 3333 2805 3179 2578 2117 2103 2066 1848 1491 856 2159 1009 991 1823 1223 668 1744 515 565 595 1128 1645 574 442 241 496 528 1118 1227 1791 2885 3296 1875 2256 2753 2682 2395 2575 2830 3762 3630 3212 3326 4193 4074 4018 4386 4454 4649 4607 4578 4656 4724 4740 4788 4812 4726 4635 4130 3792 3211 2477
2415 2364 2496 2538 3205 3240 3747 3202 3863 3935 3819 4164 3209 3578 3085 3337 3345 3785 4185 4647 3431 4485 3614 2804 2926 2723 2658 2223 1975 1443 1461 1344 1013 1012 920 1600 2021 1426 1673 1550 1359 674 833 778 888 646 452 441 584 1161 1301 1786 2488 2661 3782 3475 4195 4067 2737 2604 2397 2400 3531 3621 3296 3092 3349 3260 2937 3233 3887 4316 4411 4453 4315 4165 4098 3974 3848 3694 3858 4128 3912 3258 2874
3260 2300 2040 2063 3337 3023 3209 2862 3861 3560 3604 3556 3360 3354 3130 3895 3784 3949 4689 3902 4644 4035 4758 3881 3434 2806 2140 2096 2318 1774 1551 1434 1306 1392 1642 2139 1156 1010 1472 2863 1966 1714 1616 1258 656 458 366 786 989 982 1154 2138 3009 2917 2949 2527 2233 2943 2759 2417 2454 2557 3290 3619 3368 2970 2844 2501 2441 2663 2856 3004 3138 3076 2882 2730 2757 2907 3232 3502 3516 3492 3478 3534 2950
2601 2279 2185 2262 3233 3214 3485 3152 4013 3509 3910 3505 3625 3615 3406 4436 3639 3412 3140 4337 4692 4297 3478 3720 3187 3057 2756 2519 2297 2072 1765 1594 1631 1493 1351 1464 1634 1585 2236 3255 2226 2083 2129 2272 1939 850 1111 693 735 1237 2256 2211 3188 3154 2581 2818 2418 4234 3287 2787 2384 2904 2877 3164 3600 3509 2882 2574 2330 2384 2426 2609 3193 3852 3729 3507 3414 3431 3380 3331 3445 3603 3611 3454 3001
2220 2444 2785 2447 3003 3507 3647 3278 4206 4108 4073 4252 4522 4205 3958 4715 4040 3373 3402 3122 3895 4039 3427 3322 3219 2942 2722 2373 2225 1964 2166 1940 1592 1636 1476 1809 1604 2038 2550 2050 1656 2419 2191 2145 2774 2166 2054 1695 1016 1794 2855 4607 3272 2618 2824 2967 2174 3186 2553 2240 2399 3184 2931 2772 3117 3128 2955 2571 2558 2566 2454 2331 2657 2945 3104 3727 3402 3343 3348 3143 3228 3380 3356 3266 3016
2179 2834 3205 2659 2985 3380 3873 3670 3438 4340 4383 4312 4318 4237 4188 4532 4671 4579 4103 4161 3580 3368 3800 3857 3463 3133 2843 2691 2433 1926 1879 1898 1969 1896 2473 2915 2586 2858 3135 2347 1783 1973 2454 2613 3094 2582 2315 2036 2121 2387 2608 2628 3887 4136 3237 2754 2414 2335 2349 2025 2400 3395 3243 2752 2695 2760 2403 1906 1900 2214 2310 2149 2059 2441 2863 3699 3573 3344 3280 3435 3553 3508 3567 3394 3092
2679 2807 2571 2506 2483 3049 3663 3572 3642 3944 4228 3799 3511 3615 3913 3675 4238 3973 3710 2947 3276 3210 3752 3899 3572 3087 2884 2910 2520 2638 2633 2602 2126 2191 2424 2708 2916 3506 2963 3362 2850 2060 2585 2255 2717 2528 2288 2391 2097 2355 2815 3495 3625 3970 2678 2074 2126 2366 2146 2024 2031 1812 2872 2939 2894 2671 2146 1676 1572 1540 1647 1674 1654 1884 2701 2982 3455 3572 3462 3287 3567 3539 3389 3223 3082
2505 2486 2084 2375 2712 3646 3109 3082 3440 3729 3660 3555 3299 3922 3438 3510 3610 3648 3614 3664 3400 4116 3964 4197 3644 3162 3152 2984 2725 2922 2593 2342 1972 2844 3473 3144 3283 3293 3576 2768 2970 2429 2640 2246 2693 2869 2538 2520 2557 2426 2634 2513 2431 2986 3382 2672 2181 2101 1816 1700 2290 2074 1920 1798 1694 1473 1267 1246 1260 1272 1434 1587 1725 1776 2181 2585 2586 2282 2326 2589 2710 2687 2816 2728 3080
2209 3104 2372 2696 2935 2850 2930 3125 3444 3564 3482 3249 3024 3568 3436 3754 3483 3504 3110 3695 3389 3890 4159 4065 3602 3015 2483 2692 3764 2767 3135 3154 3000 2445 2731 2729 2267 3176 3179 2692 2969 2492 2646 2760 2223 2767 3194 2737 2846 2734 2740 2847 2587 2495 2355 2229 2156 1957 1644 1876 2407 2313 2112 1868 1467 1318 1294 1078 960 1006 1092 1246 1292 1088 955 1028 1078 1132 1259 1537 1982 2076 2411 2561 2631
1940 2572 2344 2415 2821 2894 3140 3006 3640 3524 3449 3352 3298 3416 3634 3603 3336 3602 3313 4097 3376 3544 3523 3210 2856 2835 2834 2843 2876 2663 2362 3409 2935 2968 3170 3469 2821 2720 2999 3743 3703 4395 3361 2732 2458 2366 2736 3142 3086 3089 3105 2891 2731 2354 2473 2406 2063 1960 2182 2400 1714 1710 1483 1002 1016 1047 724 688 882 1017 1040 1128 1034 565 408 464 614 742 929 1455 1972 1826 2071 2121 2331
1906 1979 1966 2016 2216 2670 2552 2626 2452 2812 2873 2962 3004 2931 3430 3375 2969 3241 3132 3250 3628 3437 3432 3193 3304 3150 2805 2766 2960 2942 3118 2820 2836 2806 2591 2206 2881 3161 3278 4237 3661 3774 2968 2780 2285 2116 2582 3516 3394 3256 3216 3167 2881 2429 2264 2027 1709 1628 1848 1746 1669 1229 807 692 806 870 783 604 604 903 1097 1107 957 506 273 261 304 431 589 732 989 1216 1447 1613 1775
1913 1754 2562 2185 2222 2181 2254 2250 2264 2170 2638 2804 2810 2886 3240 3214 3181 3320 2992 3336 3143 3283 3271 3374 3350 3120 2944 3265 3302 3371 3312 3073 2967 2632 2332 2271 2115 2189 3204 2508 2534 2974 2978 2197 2119 2738 2567 3136 3417 3375 3314 3002 2707 2464 2219 2042 1956 1996 1798 1332 1432 1187 889 877 938 897 830 327 302 543 862 1032 774 120 73 78 136 221 522 792 863 883 932 964 954
1894 1995 2116 2326 2161 2077 2134 2171 1933 2554 2546 2730 2831 2663 3061 3203 3210 2975 2592 3222 3076 3134 3317 3236 3058 2838 2786 2761 3284 3318 3201 2900 2792 2604 2453 2078 2510 1942 1914 2571 2231 2830 3367 2624 2824 3075 3318 3462 3404 3106 3004 2878 2587 2344 2239 2183 2121 2089 1766 1262 1332 1090 975 1055 936 921 949 258 274 240 308 282 134 32 3 0 0 607 843 1078 1094 1086 1096 1142 1068
1606 1719 1952 1879 2228 2069 2266 2323 2771 2624 2516 2519 2499 2356 2511 2870 3041 2935 2562 3116 3232 3356 3311 3173 2833 2652 2765 2635 2484 2564 2660 2457 2708 2670 2420 2636 2252 4059 2608 2777 2644 3056 3291 3759 3800 2785 3501 3074 3073 3167 2867 2600 2375 2244 2236 2324 2317 2163 1712 1355 1255 1326 1366 1132 951 980 945 396 107 37 63 103 23 0 31 291 851 1003 1191 1259 1184 1155 1235 1292 1314
1488 1374 1866 2056 2931 2826 2676 2620 2488 2484 2586 2461 2420 2450 2384 2639 2832 2821 2640 2779 3178 3326 3248 2961 3749 3131 2592 2153 2153 2316 2156 2028 2297 2812 2447 1999 2029 1699 1800 2089 2035 3267 4159 3789 3583 3426 2943 2798 2614 2760 2800 2808 2683 2550 2491 2383 2055 1293 1104 1381 1851 1639 1313 1236 1469 1511 1269 477 386 865 989 971 929 832 958 1143 1112 1126 1357 1477 1336 1282 1273 1405 1420
1371 1407 1839 1856 2923 2523 2414 2430 2463 2228 2301 2538 2561 2729 2583 2331 2657 2718 2720 2989 2734 2347 2420 2580 2684 2902 3040 2996 2944 2859 2665 2700 2230 1991 2181 1920 2941 2244 2050 2095 2263 2850 2985 2682 3169 3217 2867 2638 2524 2643 2746 2500 2324 1940 1652 1208 1072 1079 1119 1103 1166 1270 1481 1575 1726 1781 1232 1356 1646 1665 1556 1411 1266 1193 1218 1383 1448 1465 1493 1530 1478 1406 1379 1378 1372
1459 1580 1760 1698 2302 2386 2146 2215 2420 2526 2424 2654 2768 2828 2868 2647 2268 2646 2706 2779 2918 2692 2551 2476 2597 2634 2670 2612 2584 2494 2315 2242 2245 2234 2089 2174 1871 1566 2001 2376 3022 2821 2550 2684 2610 2793 3313 3286 2606 2200 1824 1818 1849 1746 1583 1520 1606 1617 1497 1650 1153 1276 1551 1708 1398 1769 2110 2193 2164 2070 1937 1770 1691 1582 1691 1863 1782 1788 1847 1824 1604 1466 1330 1337 1294
1496 1424 1480 1539 1763 2115 2096 2030 2190 2462 2826 2867 2790 2980 3070 2825 2624 2468 2445 2548 2827 2903 2774 2614 2477 2546 2502 2375 2165 1927 2040 2076 1915 1933 1985 1926 2122 1985 1869 1752 2795 3105 2964 2906 2426 2052 1875 2327 2391 2312 2165 2057 1982 1823 1720 1592 1573 820 1958 1906 1593 1586 1725 1959 2157 2391 2541 2439 2367 2238 1937 1806 1880 2045 2058 1988 1996 2111 2146 2026 1787 1594 1524 1375 1003
1412 1371 1284 1329 1478 1661 1764 1929 2222 2444 2574 2708 2740 2941 3053 2925 2746 2580 2462 2417 2559 2458 2358 2270 2166 2136 2418 2471 2260 1947 1814 3686 4085 4248 3529 2639 1976 1864 2718 2398 2704 2339 2455 2656 2543 2566 2911 2867 2561 2387 2332 2243 1988 1675 1240 1020 886 1080 1919 2073 1659 1713 2073 2280 2513 2622 2667 2587 2499 2359 2073 2025 2105 2059 1984 2122 2328 2349 2290 2196 2056 1814 1606 1324 1349
1322 1270 1314 1316 1317 1388 1432 1661 1987 2415 2202 2019 1990 2120 2800 2633 2394 2105 2023 2191 2284 2409 2298 2144 2051 2124 2161 2138 2056 2485 2208 2014 2044 2842 3126 3307 3047 1939 1543 1717 1806 2177 2549 2648 2597 2346 2044 1721 1532 1686 1866 1812 1629 1245 1093 1160 1005 1672 1757 1661 1608 2013 2378 2681 2611 2687 2685 2649 2488 2117 1965 1942 1928 1916 2124 2434 2538 2381 2206 2103 2064 1919 1592 1567 1556
1348 1229 1270 1272 1205 1063 997 1308 1560 1816 1843 1734 1583 1259 1907 2473 2542 1854 1538 1624 2156 2519 2659 2454 2201 2395 2444 2149 1939 2236 3421 3295 2905 2722 2654 2861 3466 2476 2001 2147 2255 1588 1446 1620 1793 1995 2111 2341 2326 1867 1570 1175 926 939 1224 1328 1145 1702 1715 1579 2043 2504 2818 2839 2686 2385 2725 2431 1996 1821 1760 1781 1892 2100 2376 2622 2654 2330 1993 1814 1798 1722 1527 1370 1424
1306 1560 1149 928 910 878 1095 1070 1179 1341 1449 1516 1271 1161 1372 1744 1901 1817 1681 1590 2472 2378 2319 2186 2136 2192 2026 1808 1545 1143 1559 2107 2239 2964 3307 3729 3336 2826 2111 1442 1658 2268 1712 1034 935 1053 993 876 970 1184 1398 1622 1720 1704 1444 1128 1580 1979 1999 2253 2740 3010 2910 2644 2311 1884 1806 1757 1786 1938 2068 2145 2180 2330 2608 2687 2399 1988 1586 1631 1601 1356 1201 1414 1553
1504 1421 1696 1582 1367 1034 733 740 841 930 918 764 808 986 1134 1074 1093 1354 1511 1714 1864 1806 1908 1900 1771 1678 1644 1624 1673 1537 1072 1267 2570 1627 1490 1712 2664 2431 1898 1912 2021 1833 1404 1570 1492 1846 1959 1774 1392 1114 1048 949 826 907 1423 2205 2320 2186 2480 2662 2729 2566 2319 1910 1688 1626 1660 1966 2146 2238 2239 2227 2338 2555 2480 2017 1645 1646 1751 1740 1563 1542 1517 1532 1561
1595 1453 1541 1417 1082 1184 1515 1336 984 607 573 623 726 783 823 897 618 650 1052 1634 1586 1042 498 755 1189 1228 1423 1867 1846 2001 2597 2469 2382 2974 3037 2612 2949 3017 2439 1885 1499 2038 2866 2356 2034 2124 2108 2120 2178 2019 1740 1427 1425 1370 2278 2016 1596 1961 2317 1706 1612 1636 1686 1717 1740 1878 2131 2273 2356 2304 1991 1987 2141 1620 1734 1673 1657 1724 1788 1648 1624 1685 1683 1864 1786
1674 1628 1668 1918 1509 1119 930 882 863 834 686 676 679 603 771 887 752 461 619 1152 1275 1001 1094 933 1385 1039 746 870 1187 2089 2190 1678 1851 2324 2126 2409 3396 3489 3452 3309 3068 2683 2628 2723 2918 3089 3118 2851 2568 2384 2292 2185 2049 1903 1740 1603 1532 1429 1288 1537 1893 1914 1794 1949 2091 2188 2285 2282 2160 1995 2021 1937 1811 1786 1674 1547 1580 1654 1643 1580 1690 1683 1832 1749 1725
2036 2428 2248 2065 1712 1405 1178 943 882 878 842 854 821 785 498 321 379 393 225 806 1065 892 874 1268 1051 1471 1311 1231 1420 1997 2262 1222 986 1220 1692 2662 3068 3125 2684 2918 3102 3202 2958 2663 2238 1847 1823 1988 2239 2099 1807 1762 1576 1566 1561 1716 1746 1904 2067 2126 1786 1823 1998 2103 2122 2104 2001 2053 2044 2098 2071 2032 1859 1735 1587 1546 1547 1563 1509 1570 1492 1568 1656 1570 1834
1629 1877 1978 1707 1469 1330 1223 1148 1120 1070 952 854 878 955 929 438 504 1506 1675 1512 1481 1501 1875 1620 1404 1845 2124 1367 1103 1602 1565 1089 874 989 1324 2378 2039 2743 2982 3030 2918 2563 2333 2101 1854 1691 1960 2004 1961 1966 2276 2351 2225 2097 2114 2312 2289 2266 2382 2129 2176 2090 2140 2153 2102 1945 1916 1719 1632 1886 1721 1662 1703 1599 1607 1639 1612 1524 1494 1371 1299 1481 1380 1605 1742
1214 1205 1582 1526 1403 1248 1224 1149 988 927 1026 983 827 626 526 450 633 1701 2368 2367 2411 2216 2072 1897 1582 1437 2268 2927 1718 792 693 634 658 691 815 1229 1338 1504 1620 1710 1788 1839 1759 1691 1655 1649 1663 1697 1656 1479 1554 1882 2030 2144 2471 2530 2598 2462 2287 2337 2341 2295 2179 2033 1840 1662 1581 1444 1538 1664 1705 1677 1616 1605 1565 1615 1492 1367 1260 1318 1407 1514 1446 1416 1466
882 1092 1334 1354 1242 1176 1153 1052 1229 815 824 841 825 651 444 546 951 1725 2426 2333 2389 2226 1927 1731 1604 1375 1315 1487 1206 946 835 727 684 778 876 986 1121 1214 1294 1337 1336 1569 1341 1264 1147 972 974 1078 970 1031 1218 1349 1998 2316 2210 2625 2423 2255 2500 2567 2149 2003 1519 1477 1421 1319 1160 1239 1672 1735 1414 1400 1443 1531 1619 1564 1413 1304 1237 1344 1455 1432 1339 1317 1518
Wind_Speed
12 13 13 14 13 14 15 15 15 17 17 17 15 15 15 17 19 20 20 21 21 22 18 13 14 13 13 8 nan nan 7 7 8 8 8 9 10 12 13 14 14 15 15 15 16 17 17 18 18 18 18 17 17 17 16 15 14 13 13 13 14 13 14 14 14 14 13 13 14 15 15 15 15 15 16 17 18 20 20 19 19 21 21 20 19
13 15 16 15 16 17 16 16 15 17 16 17 16 14 16 19 21 22 23 22 21 19 15 14 13 12 11 nan 8 8 8 7 8 8 8 8 9 11 13 14 15 15 15 15 16 16 17 17 17 16 16 16 15 15 15 13 13 12 12 12 13 13 12 12 12 13 13 14 15 15 16 15 15 15 16 17 19 17 16 15 14 13 12 13 14
14 16 19 17 17 17 16 15 16 15 16 17 17 17 18 21 22 23 24 24 22 19 15 12 9 12 10 10 12 8 9 7 8 7 7 8 8 10 11 14 15 16 15 16 16 16 16 16 15 15 15 15 14 13 12 12 12 12 12 12 12 12 11 11 12 13 13 14 14 14 15 15 15 15 16 17 15 13 13 13 13 13 13 12 12
15 17 19 17 17 17 16 15 16 16 16 18 19 19 19 21 22 23 22 21 21 19 16 13 11 12 10 10 11 9 10 8 7 7 7 6 7 9 10 12 15 15 16 16 16 16 15 14 14 14 14 13 13 13 12 12 12 12 12 11 11 11 10 10 12 12 13 13 14 15 15 15 15 16 16 14 13 12 12 13 13 14 14 14 13
17 19 19 17 18 18 17 17 19 18 18 19 20 20 19 22 22 20 22 20 18 19 17 14 14 14 10 9 10 11 9 9 7 7 7 6 7 8 9 10 11 13 15 15 15 15 14 14 13 13 13 13 13 13 13 12 13 12 12 11 11 10 9 9 11 12 13 14 15 16 17 16 16 16 15 15 14 14 14 15 15 15 15 15 14
19 19 18 18 19 19 19 20 20 19 18 19 20 21 19 20 21 19 19 18 17 17 15 14 12 12 11 8 8 10 5 9 6 7 6 6 7 8 8 9 9 9 10 14 15 14 14 14 14 14 14 14 14 14 13 13 13 13 12 11 10 9 9 11 12 14 15 16 17 17 17 17 16 16 16 16 16 15 16 17 17 17 17 17 17
18 17 18 18 19 20 20 20 20 17 17 18 19 20 18 19 17 16 16 15 13 15 12 11 10 7 8 8 8 11 8 8 7 6 6 6 7 7 8 8 8 7 8 7 10 13 13 14 15 15 15 15 15 14 14 14 13 12 11 10 9 9 10 12 14 16 16 18 18 18 17 18 19 18 17 18 17 16 17 17 17 17 18 19 19
20 18 17 18 18 18 18 18 18 18 18 19 19 18 19 17 16 14 15 14 12 12 12 9 10 8 5 7 7 9 9 7 6 8 5 5 8 6 7 7 6 5 6 6 6 7 12 14 15 15 16 15 15 14 14 13 12 11 10 10 9 10 11 13 15 16 17 18 18 17 18 19 19 19 19 19 18 17 17 17 17 18 19 20 20
18 18 19 19 14 15 15 15 16 16 16 18 18 17 15 15 14 13 10 12 12 12 11 10 11 8 7 7 8 8 9 7 11 8 4 6 8 7 7 6 6 6 3 4 4 4 8 14 13 15 15 15 15 14 14 13 12 12 11 11 11 11 12 14 16 17 17 17 17 17 17 19 20 19 19 19 18 18 17 17 18 19 19 19 20
17 17 19 19 14 13 13 13 13 14 14 15 15 14 14 13 12 12 11 9 11 11 12 10 8 8 6 7 6 10 10 10 10 8 5 6 7 7 8 6 4 5 2 2 4 4 6 10 14 13 14 14 14 14 14 13 13 13 13 13 13 13 14 15 16 16 16 16 16 16 18 19 20 20 19 19 19 18 18 18 19 19 19 19 19
16 17 17 15 10 10 10 11 12 12 12 12 14 13 12 12 10 12 11 10 9 11 12 9 10 8 6 7 6 5 10 10 8 6 7 8 7 7 5 6 5 2 3 4 6 6 7 8 8 8 10 14 14 15 15 14 14 14 14 14 15 16 16 16 16 16 15 15 16 17 18 19 20 19 19 19 19 19 19 19 20 19 19 19 19
16 15 14 12 10 10 9 10 11 11 10 11 12 12 11 11 12 10 12 11 10 11 11 11 7 2 6 8 7 7 10 10 11 10 10 10 7 6 5 6 4 3 5 7 7 8 8 8 9 10 10 12 16 15 15 14 14 15 14 15 16 17 17 18 18 17 16 15 16 18 20 20 20 19 18 19 20 20 20 20 21 20 20 20 20
14 13 12 10 9 8 8 9 8 8 8 8 9 11 10 9 9 9 9 9 10 10 11 7 4 5 7 8 10 10 11 11 11 12 11 10 6 7 6 6 6 6 6 7 8 9 10 10 10 9 10 11 12 14 15 14 14 14 15 15 17 18 19 19 19 18 18 17 18 20 21 21 20 19 19 20 21 21 21 21 22 21 21 20 21
12 11 10 9 7 7 7 8 7 6 7 7 7 9 9 8 7 7 7 8 8 10 12 4 6 7 8 9 11 12 12 11 11 11 11 8 8 3 5 8 7 7 7 7 9 10 11 11 11 11 11 11 12 11 12 12 13 16 15 16 17 19 19 20 20 20 19 19 21 22 23 22 20 19 19 21 21 22 22 23 23 23 22 21 21
12 10 9 8 6 7 7 7 7 6 6 8 7 7 8 8 8 7 10 8 8 10 8 3 6 8 7 7 10 10 11 9 10 11 11 9 8 5 5 7 8 8 8 9 11 11 11 11 11 11 12 12 12 13 13 14 15 17 17 17 17 18 19 20 20 20 20 21 23 25 24 23 21 20 20 21 23 23 24 24 25 25 24 23 22
10 10 7 6 5 5 5 6 6 6 4 5 6 7 8 8 8 5 3 7 7 8 7 4 4 4 6 7 8 6 8 8 9 11 9 13 11 nan 2 7 8 7 8 10 10 10 9 10 10 10 10 11 11 12 13 14 17 18 18 17 17 17 18 19 20 20 21 23 24 26 25 23 21 20 21 22 24 24 24 25 26 26 26 25 24
9 9 6 5 5 4 4 6 5 6 5 5 6 7 7 7 5 4 5 2 6 7 7 5 6 6 5 5 7 6 8 10 8 8 6 2 4 nan 6 7 7 9 9 9 10 11 12 12 12 10 10 9 7 11 14 14 15 15 15 17 18 18 18 17 18 20 22 24 26 26 25 23 21 21 22 23 24 25 25 25 27 27 27 26 26
8 8 5 5 5 5 5 5 6 6 6 6 6 6 8 8 6 4 5 3 3 5 8 8 8 5 4 5 6 6 5 7 3 7 10 6 6 3 nan nan nan 9 8 8 10 10 10 12 9 8 8 8 9 10 13 13 13 14 13 14 19 19 17 18 19 20 22 24 26 25 24 22 21 22 22 24 25 25 26 25 26 27 26 26 26
8 5 4 5 5 6 5 5 6 5 6 6 7 7 8 7 6 4 5 4 2 4 6 8 9 6 4 5 5 4 4 2 5 4 5 8 4 4 5 nan nan 2 5 5 8 8 9 8 10 10 8 8 9 9 8 12 15 14 15 15 18 18 17 19 20 21 22 24 24 23 21 20 21 21 22 24 24 25 26 26 26 26 26 26 26
6 4 3 4 5 5 5 5 5 5 5 5 5 5 6 6 6 5 3 3 2 3 6 6 4 7 6 3 2 2 3 5 4 4 4 2 5 5 3 2 3 3 4 6 4 7 10 9 11 13 13 10 10 8 9 9 11 12 12 16 17 17 18 19 20 22 23 23 22 19 19 18 19 20 22 24 24 25 26 27 27 27 26 25 25
4 3 3 4 5 5 5 5 5 5 6 6 4 4 5 6 6 3 2 2 3 4 4 8 5 5 5 5 2 1 4 4 2 3 3 1 3 2 2 3 3 2 1 nan 3 7 8 9 12 13 12 11 9 10 9 10 11 11 10 13 16 18 19 19 21 23 23 22 19 16 16 17 18 20 22 23 23 23 24 26 27 26 25 25 24
3 3 4 4 5 5 5 5 6 5 6 6 4 5 6 6 7 5 3 3 4 3 5 7 7 7 2 2 2 3 1 1 3 2 1 4 4 3 4 4 2 3 4 5 8 6 5 4 5 7 9 11 13 9 8 9 10 7 9 15 16 17 18 18 21 23 23 20 16 15 16 17 19 21 22 23 23 23 23 24 26 26 26 26 25
3 3 3 4 5 6 6 6 7 6 5 5 5 4 7 5 4 3 4 4 5 4 4 6 6 6 6 2 4 1 3 3 4 1 3 4 1 2 3 2 5 3 4 7 6 8 6 5 5 3 8 8 8 9 9 9 5 6 11 16 15 17 14 18 21 22 21 18 16 15 16 18 20 21 22 22 23 22 22 24 25 26 27 27 26
4 3 3 3 4 5 6 5 5 5 4 4 5 5 5 6 4 5 6 6 6 5 5 6 8 8 5 4 2 2 4 3 4 5 3 3 5 4 2 3 4 6 8 5 7 5 6 6 5 9 8 7 6 7 8 8 7 7 7 12 15 13 15 21 21 21 20 18 15 14 15 17 18 19 20 21 21 22 22 23 25 26 26 26 26
5 3 4 3 3 4 4 3 3 4 3 3 3 3 4 5 4 6 5 5 6 5 4 6 8 7 8 7 3 4 6 5 3 4 4 5 6 5 5 6 7 5 5 7 7 7 6 6 7 6 6 6 7 6 8 8 6 8 7 9 8 12 19 21 22 22 20 17 14 14 15 16 17 18 19 21 22 23 23 24 25 25 25 26 25
4 3 4 3 2 3 2 2 2 2 2 2 2 3 3 4 3 3 4 5 4 5 6 6 6 8 7 7 7 5 8 4 3 4 4 4 4 5 5 4 5 4 5 3 6 7 5 4 6 4 6 8 7 7 5 5 5 7 10 7 7 11 18 22 23 22 20 17 15 15 16 17 17 17 18 20 22 24 24 24 24 24 24 25 25
3 4 4 3 2 1 1 2 1 2 2 2 1 1 1 3 2 3 4 5 4 3 4 4 6 7 6 5 4 3 5 5 3 5 6 6 5 6 4 2 0 2 3 4 3 8 8 7 8 8 9 9 8 6 6 6 6 8 7 6 8 12 17 21 23 23 19 16 15 15 17 17 17 17 18 20 21 24 24 23 22 22 23 24 25
4 3 3 1 1 1 1 2 2 2 2 1 1 1 1 2 1 2 3 3 2 1 2 1 3 5 5 5 3 4 6 4 5 6 6 5 5 6 5 6 5 3 3 4 4 6 7 7 7 8 8 8 7 8 7 7 7 6 4 5 7 12 17 21 23 23 20 16 14 15 16 17 16 17 19 20 21 22 23 23 22 21 22 24 26
1 2 2 2 1 1 2 2 2 2 2 2 2 2 3 2 2 2 2 1 3 2 1 1 1 2 2 2 2 3 2 2 2 6 7 7 7 5 6 9 10 8 6 5 6 7 5 6 8 8 7 5 6 7 8 8 8 6 7 7 9 12 14 18 21 23 20 14 13 14 16 17 15 15 18 19 20 21 23 23 22 21 21 22 25
2 2 0 1 1 2 2 2 2 1 3 2 2 2 2 1 1 2 2 1 2 1 0 0 1 0 1 1 1 2 2 3 5 8 5 5 5 6 8 8 11 11 10 9 7 8 7 6 7 7 6 2 3 5 9 9 8 7 7 7 8 10 10 13 16 16 15 13 14 15 15 16 14 14 15 16 17 19 21 22 22 20 20 20 23
4 4 2 2 1 1 1 2 0 1 1 1 2 2 2 1 1 1 2 2 2 1 0 1 1 1 1 1 1 3 3 3 3 3 3 4 4 5 7 8 7 10 11 10 7 6 10 8 5 5 6 6 5 5 5 7 7 6 6 7 10 9 9 11 11 11 11 10 8 12 15 16 13 13 14 15 16 18 19 20 20 20 20 20 21
4 5 4 3 3 0 1 1 1 1 1 2 2 3 2 1 1 1 0 2 2 2 1 1 0 1 0 0 1 2 3 5 4 4 3 1 2 2 4 6 6 7 9 9 8 6 6 8 6 5 6 4 4 3 5 4 4 4 5 8 10 9 10 12 11 11 11 7 6 7 13 14 12 13 14 16 18 19 20 20 21 20 20 19 20
6 5 4 3 3 2 2 2 3 2 2 2 2 3 3 2 0 1 1 1 2 1 1 1 1 1 2 1 2 3 4 4 4 4 5 4 2 2 4 7 8 8 9 8 8 5 3 6 7 6 6 4 4 4 3 3 2 2 4 7 9 11 12 13 13 11 6 4 5 6 10 11 11 12 13 15 17 18 20 21 21 21 22 21 20
7 6 5 4 4 3 4 3 2 3 2 3 3 4 3 2 1 1 1 3 1 1 2 2 2 1 2 2 2 3 4 3 3 3 2 3 2 3 5 6 7 6 6 8 7 6 4 3 2 4 5 5 4 3 2 2 3 4 5 7 10 12 13 12 10 8 5 2 3 5 7 8 9 11 nan nan 15 16 17 19 20 21 24 24 23
9 7 6 6 6 5 5 5 4 4 3 3 4 4 4 4 3 3 2 3 3 2 2 2 1 1 2 2 2 3 3 3 2 1 2 2 6 7 4 4 5 6 7 8 8 6 4 3 4 3 4 3 4 3 3 5 6 8 8 9 11 12 12 12 9 8 6 4 2 2 5 6 8 nan nan nan nan 14 16 17 19 19 22 26 26
12 10 9 8 8 7 7 6 6 6 6 5 5 5 6 5 5 5 4 5 4 4 4 2 2 2 2 2 2 2 3 3 3 2 2 3 6 6 5 4 4 4 6 6 6 7 5 4 3 6 4 4 4 4 5 6 7 8 11 12 13 13 13 10 8 8 8 5 2 nan nan 6 nan nan nan 10 12 14 15 16 17 18 19 24 25
13 12 12 13 13 11 9 8 7 8 7 7 6 6 7 8 7 7 6 7 7 6 5 4 3 4 4 4 2 3 3 3 4 4 4 4 4 2 3 4 3 4 6 7 6 6 5 4 2 3 4 5 6 5 6 8 8 11 13 14 14 13 12 10 9 8 7 4 5 4 4 5 5 6 8 10 11 13 14 15 16 17 18 22 25
16 14 14 14 15 12 10 10 10 9 9 9 8 7 8 10 9 9 9 9 8 7 7 6 4 4 5 6 6 7 7 6 5 4 4 3 5 5 4 4 4 4 3 4 5 5 5 3 4 3 6 6 7 8 7 9 9 9 10 10 11 12 12 10 9 9 8 8 8 7 6 5 4 4 8 9 10 11 12 13 13 13 15 19 24
18 17 16 15 16 14 12 12 11 11 10 10 10 10 10 10 11 12 12 12 10 10 9 7 6 7 7 8 8 8 7 7 7 5 5 5 4 4 5 4 4 4 4 4 5 6 7 6 7 8 8 8 10 7 6 8 9 11 12 11 13 13 13 12 9 9 9 8 9 9 10 10 9 8 6 4 4 8 11 11 10 9 10 15 22
19 18 17 16 16 16 14 13 13 14 13 12 12 12 13 12 13 13 14 14 13 14 14 13 12 11 10 10 9 10 11 10 8 7 8 7 8 6 5 6 9 10 9 9 10 11 11 11 11 10 11 11 9 10 9 10 11 11 12 14 12 11 11 15 16 11 10 11 11 11 11 10 11 9 7 7 6 7 7 8 8 9 8 10 20
20 19 18 18 17 16 16 15 14 15 15 14 14 14 14 15 16 16 15 14 15 15 15 14 13 12 12 11 11 11 12 10 9 9 8 9 9 8 9 12 12 13 13 13 13 14 13 13 11 12 12 11 10 10 10 11 11 10 11 13 12 12 13 14 14 14 15 12 13 14 12 11 10 11 10 10 9 8 7 7 8 7 8 11 17
21 20 20 19 19 18 17 17 16 17 22 24 25 19 15 17 18 19 19 19 18 17 17 16 15 14 13 12 11 7 6 6 5 6 6 5 8 11 12 13 14 15 16 16 16 15 15 13 12 12 12 12 12 13 13 12 11 12 10 11 10 10 12 13 16 20 15 13 13 12 14 13 11 11 13 12 11 11 12 12 11 10 10 13 16
25 26 26 25 25 24 24 23 25 25 21 16 17 16 14 12 20 19 19 19 18 18 19 20 18 17 17 16 15 14 12 9 10 8 8 6 9 12 15 17 17 17 16 15 15 16 17 16 16 16 15 13 12 13 13 12 12 12 12 11 11 13 14 13 13 16 21 16 11 13 14 15 16 14 15 14 13 12 11 11 7 6 6 11 15
25 25 24 23 23 22 23 24 26 24 21 18 16 24 23 21 20 21 21 20 20 21 21 20 20 19 18 16 16 18 20 20 18 17 15 10 10 13 15 17 17 17 18 19 17 17 17 15 14 14 15 14 15 15 12 12 12 13 12 12 14 14 14 14 16 16 18 16 10 10 13 16 18 17 17 16 15 15 12 12 10 7 5 8 12
26 27 26 25 24 23 24 26 26 23 20 21 21 21 21 22 26 24 23 22 22 22 23 22 22 20 19 19 19 22 19 15 21 20 18 16 12 11 12 13 15 17 18 17 18 18 18 17 16 15 15 16 15 15 17 15 16 14 14 14 16 15 16 15 16 16 15 16 12 12 13 15 16 17 18 17 17 17 16 14 9 7 6 6 7
28 27 26 26 26 27 28 26 25 24 25 26 23 24 23 23 25 29 27 26 25 25 27 29 28 26 26 25 26 27 26 27 26 25 23 21 19 19 18 18 18 17 18 19 17 14 16 17 18 17 15 20 17 19 18 18 16 15 15 15 16 14 14 16 17 18 18 17 14 14 14 16 17 17 18 19 19 19 19 14 8 7 10 11 9
31 29 28 28 28 28 30 30 29 29 28 28 26 30 31 30 28 30 30 28 29 32 34 34 33 32 30 30 28 29 28 28 28 27 27 25 24 22 21 21 21 21 21 21 21 21 21 19 18 17 16 18 19 18 19 20 18 17 18 16 15 14 12 14 17 20 20 20 22 19 14 14 18 18 19 19 20 21 22 18 13 11 14 14 13
33 34 34 34 33 31 31 32 32 32 32 34 33 36 36 32 29 32 33 31 32 33 35 39 36 33 32 31 31 30 30 31 30 30 28 26 25 26 26 25 23 23 24 23 22 22 22 23 22 21 20 20 22 22 21 21 20 19 18 17 17 15 13 13 14 18 21 23 21 19 19 18 19 19 18 20 22 22 22 23 20 16 15 12 12
36 37 36 37 37 37 35 34 34 34 35 35 34 34 36 34 33 32 35 35 34 35 39 39 38 36 34 33 34 34 33 32 31 31 30 30 29 28 26 26 26 26 26 26 33 34 29 24 21 19 18 18 19 20 20 19 21 21 22 20 17 18 16 15 15 18 20 22 22 27 22 19 21 19 17 20 23 22 23 25 25 22 15 13 13
36 39 40 41 40 40 38 38 38 38 36 34 32 33 35 36 33 32 31 34 35 37 37 38 39 38 36 38 39 37 36 35 34 34 33 32 31 30 30 28 28 27 30 29 27 26 25 25 25 23 20 18 18 18 19 20 20 23 24 20 20 22 19 19 16 17 18 20 24 24 21 22 22 22 18 18 21 27 25 25 26 23 20 17 13
34 37 39 41 42 41 42 42 41 41 36 32 32 33 35 36 34 32 30 30 33 35 36 37 38 38 39 41 43 40 38 36 37 38 37 35 32 30 29 29 29 28 30 28 27 25 25 25 25 24 23 21 24 25 25 24 27 25 25 24 23 25 21 20 19 18 19 24 24 25 22 21 22 24 23 18 20 23 28 27 23 22 20 18 18
Wind_Direction
89 91 98 105 101 104 107 111 115 115 120 125 121 120 125 129 132 130 123 116 112 111 104 95 94 94 93 93 nan nan 58 79 90 91 90 89 91 85 69 73 73 71 73 78 81 82 82 83 84 85 89 92 94 95 95 97 97 95 92 88 85 84 82 82 80 76 68 57 49 46 45 43 39 35 31 29 30 30 31 34 38 48 53 50 41
86 91 104 104 103 104 105 108 108 113 120 123 122 127 129 133 127 122 118 113 112 106 110 109 99 88 84 nan 79 71 68 73 79 82 83 87 91 97 68 76 73 72 72 75 78 79 78 80 84 87 89 92 93 95 96 96 94 90 86 83 80 77 75 73 69 64 56 48 41 38 37 37 35 33 31 33 32 31 33 31 26 23 26 32 29
88 92 103 104 103 106 106 109 112 113 118 121 123 123 128 125 123 120 125 126 121 120 120 108 71 74 74 74 83 79 87 76 79 78 78 83 95 102 94 72 75 71 72 72 75 76 79 82 83 83 87 88 88 87 85 83 82 80 79 76 73 71 67 62 55 51 43 39 35 32 32 31 29 27 28 33 32 18 357 349 357 9 19 31 36
89 94 100 99 101 103 108 107 107 111 112 117 124 124 121 118 119 122 123 123 124 122 114 109 97 85 73 71 79 83 88 88 70 68 70 82 92 100 102 99 75 72 70 70 71 73 75 76 78 81 81 81 78 73 71 71 71 70 71 69 66 63 61 53 34 33 29 24 23 22 22 22 23 24 27 17 5 1 358 358 3 9 18 27 34
90 90 97 97 102 102 103 105 107 116 115 116 117 123 118 113 117 121 122 122 123 116 111 106 84 80 68 69 72 78 81 80 68 62 63 72 91 98 104 104 104 77 71 70 68 68 68 67 68 68 68 67 64 63 61 61 61 61 62 62 60 54 47 34 20 16 14 15 15 14 15 19 22 21 12 11 10 5 5 6 9 13 19 25 29
94 98 102 101 102 103 105 108 108 108 116 124 130 125 120 124 121 127 118 113 111 106 106 106 105 99 90 76 89 96 102 97 72 66 66 65 86 97 103 105 100 96 87 69 66 66 62 60 58 58 58 58 56 54 53 53 56 57 57 57 52 42 28 19 10 8 7 8 10 12 14 16 15 13 14 14 12 10 9 10 11 13 15 18 20
101 103 100 100 101 103 105 101 106 116 123 125 120 121 121 122 118 117 117 116 112 98 91 84 77 102 89 90 81 106 112 77 86 78 77 73 77 95 98 102 101 98 97 92 71 61 60 55 51 49 48 50 51 49 48 50 52 53 52 50 43 29 17 9 4 2 2 4 7 9 11 11 12 16 15 14 14 12 11 10 10 10 11 12 13
111 106 100 98 97 103 107 116 125 126 125 125 126 125 125 119 123 118 119 120 120 119 108 78 86 77 82 90 121 117 106 128 102 67 73 81 82 86 96 102 104 98 86 84 68 52 49 49 45 42 40 42 43 43 44 46 47 46 41 37 30 19 10 5 2 360 0 2 6 8 8 12 14 15 15 15 15 14 13 11 11 10 10 9 9
113 115 118 107 106 105 112 120 122 125 128 125 127 122 123 122 120 115 116 111 118 113 112 89 73 75 79 119 129 142 125 126 120 99 72 50 73 73 79 92 98 83 87 80 74 46 42 42 40 40 39 37 37 36 37 37 36 34 30 25 19 13 8 3 1 359 359 1 5 9 10 14 15 14 14 15 16 16 15 15 15 12 10 9 9
113 115 114 107 100 105 115 120 120 119 121 124 125 124 125 120 120 113 117 117 112 100 92 94 68 69 69 89 118 137 124 118 126 117 76 57 60 62 60 61 71 77 69 43 44 30 30 35 36 36 38 37 35 33 29 26 28 28 23 19 15 10 6 3 1 1 0 2 5 10 13 14 17 14 14 15 17 17 18 19 18 15 13 13 12
109 107 109 109 107 103 103 106 112 114 114 119 124 122 120 115 118 115 111 96 84 85 86 79 84 38 69 85 119 113 114 120 121 123 94 83 70 61 62 58 42 39 34 22 28 19 17 21 16 17 23 34 33 30 23 18 16 19 19 16 11 8 7 4 2 2 5 7 10 12 14 14 18 18 14 17 19 21 21 21 21 19 16 16 15
104 106 112 114 105 101 97 97 101 109 112 115 117 115 115 118 112 109 111 110 100 91 84 83 74 320 76 95 101 98 102 100 107 107 97 90 71 68 59 79 51 23 19 20 21 13 17 16 8 9 10 20 31 29 23 18 16 16 14 16 12 8 6 4 3 4 7 15 15 18 17 15 20 23 20 20 24 26 25 22 23 23 19 17 17
103 105 108 106 103 102 101 97 93 97 103 102 108 112 103 96 102 105 103 107 97 93 87 67 76 77 102 99 95 102 94 90 97 99 96 88 78 32 48 51 56 44 28 11 11 17 16 14 12 9 12 11 18 25 23 23 23 19 16 16 15 9 6 6 5 4 9 14 21 20 18 18 24 29 28 26 28 31 28 25 25 25 21 19 18
99 99 99 99 104 106 102 96 95 98 106 103 105 113 118 105 105 122 97 95 92 93 95 73 112 85 87 97 104 109 99 93 97 97 95 99 90 86 27 34 39 30 25 5 13 17 20 15 13 10 15 12 8 4 2 7 15 23 19 19 18 14 9 6 5 6 9 14 20 23 20 22 29 34 34 34 32 34 32 29 27 27 25 21 19
96 100 102 107 101 101 104 108 116 113 119 120 117 113 113 112 107 102 115 107 87 86 69 16 77 102 88 103 105 104 110 120 116 104 93 91 87 81 16 26 20 16 17 13 11 17 18 19 13 10 13 11 4 358 358 -0 5 16 20 21 18 16 12 10 7 7 10 16 18 19 23 30 37 39 38 37 38 37 36 32 30 28 28 23 20
94 96 105 97 102 108 108 103 117 120 94 106 116 110 110 107 103 106 106 132 134 104 110 46 47 91 118 96 100 102 115 109 96 88 71 64 63 nan 9 9 6 8 7 9 10 21 24 16 19 21 15 10 358 350 357 3 8 18 18 16 20 16 15 14 11 10 14 19 18 20 26 35 41 43 41 39 39 38 36 33 30 29 27 26 21
88 93 93 93 113 103 97 100 101 97 95 101 102 106 110 101 98 125 122 99 140 110 101 108 67 46 53 110 114 120 98 95 110 106 127 169 57 nan 338 357 12 15 8 22 10 12 16 18 19 16 20 17 15 347 357 5 5 4 11 14 16 16 13 11 14 16 18 19 21 24 30 38 44 44 42 40 37 36 32 30 28 27 26 27 23
84 89 85 98 107 104 96 117 114 111 112 110 116 130 118 114 100 74 122 120 97 134 133 129 126 76 58 69 51 72 94 103 163 122 128 126 180 130 nan nan nan 16 17 10 22 10 15 19 7 12 30 23 16 16 355 3 1 5 3 4 14 11 11 13 15 18 19 23 25 27 33 41 46 43 41 40 37 31 30 27 26 25 25 26 25
79 94 69 95 104 104 105 117 127 120 115 118 125 114 116 100 109 93 81 103 120 126 130 112 122 117 128 101 104 96 34 90 95 110 145 130 154 149 209 nan nan 35 19 357 12 6 19 17 0 6 32 34 22 22 15 7 9 12 14 9 13 10 13 17 17 15 19 27 30 31 37 44 46 43 42 41 36 31 28 24 22 23 26 27 25
79 87 49 68 87 98 106 116 116 116 119 112 110 125 133 130 119 96 89 110 91 96 93 102 94 97 107 104 148 123 62 73 26 29 30 48 127 127 194 211 230 255 338 353 343 342 3 13 15 5 10 26 27 21 9 12 8 12 11 13 8 11 17 17 14 16 20 29 34 34 43 46 45 43 42 41 37 31 26 21 20 24 27 30 27
77 71 62 59 82 91 105 114 115 116 124 114 122 117 126 127 126 119 146 123 88 70 74 98 96 87 129 125 155 98 104 78 25 33 24 0 88 120 146 105 269 148 265 nan 14 12 6 355 11 11 360 4 12 29 12 13 17 11 12 353 1 12 19 12 12 18 21 26 34 38 43 46 44 44 43 40 36 31 25 21 22 27 33 31 30
82 82 96 82 84 85 91 90 100 102 116 115 129 144 137 127 124 108 122 107 104 84 78 95 100 94 82 108 136 72 89 86 75 101 21 347 6 50 357 316 312 35 340 354 22 27 349 12 5 347 354 357 18 20 3 13 19 351 336 344 7 17 21 4 15 19 20 23 29 35 42 42 40 42 42 38 34 32 27 24 26 32 34 34 33
92 95 94 93 104 102 101 91 96 107 105 123 125 120 125 120 108 119 124 109 96 111 115 105 107 119 121 118 118 10 356 357 63 2 339 330 330 59 356 333 334 346 26 357 13 358 341 360 358 1 347 359 6 11 9 13 8 343 347 358 12 24 10 8 17 20 17 16 24 33 40 41 40 41 41 37 35 34 32 30 31 35 36 33 33
117 88 82 71 81 86 95 93 94 93 78 81 98 116 122 129 150 128 111 102 110 118 107 113 110 112 106 100 213 57 347 347 39 317 317 326 338 360 308 9 341 358 24 352 3 346 359 1 353 4 343 344 354 348 359 356 359 6 352 7 22 25 10 13 18 22 17 15 21 31 40 42 43 43 40 39 39 39 37 36 37 37 38 38 36
126 86 78 78 49 61 80 73 98 102 90 83 83 109 116 125 121 115 114 110 98 95 95 97 99 98 93 100 47 36 67 36 19 330 353 337 330 342 10 348 3 15 17 337 353 8 357 345 1 6 348 334 339 342 352 341 333 349 3 8 5 19 14 12 19 24 19 16 22 29 34 39 39 42 40 38 39 40 40 39 39 39 37 39 39
133 112 91 110 43 40 26 27 78 76 78 60 69 86 95 99 115 109 93 100 105 108 93 96 107 101 94 101 100 73 79 57 21 334 13 9 344 355 13 5 356 11 14 348 352 331 10 352 11 350 308 332 352 2 339 320 333 355 7 352 347 18 12 13 21 25 20 19 23 26 29 35 36 39 40 39 39 41 41 39 39 39 37 37 40
114 118 110 130 51 58 323 4 28 35 56 80 31 115 114 117 83 74 85 87 93 97 93 103 110 118 113 88 82 98 80 70 18 11 9 7 359 2 358 300 99 343 350 360 329 328 356 5 344 343 343 336 354 350 351 340 351 3 9 342 349 2 13 14 21 25 22 23 25 24 28 33 32 32 40 39 40 42 41 42 39 36 36 35 36
117 120 112 138 93 86 46 28 14 345 356 22 354 354 78 79 74 63 77 81 39 94 96 131 118 115 114 114 111 80 48 21 4 4 357 17 347 349 328 322 329 354 324 321 316 337 327 324 332 336 330 337 349 353 359 344 348 12 14 343 346 354 11 15 20 23 25 30 32 28 32 37 29 29 36 39 41 43 44 42 41 37 32 27 26
109 120 120 155 113 110 63 45 20 345 351 3 14 0 9 12 28 68 84 131 303 329 82 107 89 129 137 136 76 33 38 10 324 323 353 351 351 325 322 330 324 315 325 322 336 326 331 305 316 322 317 329 345 353 345 341 356 5 358 352 348 351 5 18 20 22 27 37 40 38 35 40 29 25 31 34 38 42 43 44 40 35 31 27 24
184 162 118 148 150 93 81 99 35 13 9 1 2 334 330 3 38 53 66 279 284 260 64 202 167 133 159 150 101 263 226 269 312 333 339 339 328 320 313 316 315 319 328 333 352 333 332 332 325 323 320 320 348 359 348 346 13 18 0 346 350 350 15 28 25 27 34 39 43 46 40 41 29 19 28 31 37 43 47 44 37 31 29 28 24
191 199 226 220 215 85 95 127 92 59 92 306 325 283 284 327 72 58 55 312 313 336 343 257 140 152 131 111 294 241 255 240 242 281 306 316 339 306 310 312 314 310 322 319 322 338 329 338 351 351 343 356 9 5 358 4 13 24 350 346 346 4 21 8 30 30 42 67 66 39 33 39 27 15 24 23 27 33 40 40 31 25 26 26 25
230 215 211 211 214 220 155 155 258 127 169 225 272 271 281 290 226 30 101 295 330 351 338 326 151 155 223 256 269 260 222 232 225 213 232 247 295 313 314 301 285 297 302 306 325 9 335 341 15 48 50 27 50 34 20 18 28 52 350 346 343 349 347 350 4 22 32 63 90 45 31 34 19 17 21 19 20 24 27 26 27 23 21 22 22
239 235 210 209 217 218 218 200 200 201 200 231 244 242 264 261 249 210 174 297 332 351 316 29 198 194 192 232 252 261 249 222 220 204 196 192 225 289 277 284 288 296 301 306 327 6 351 351 9 29 54 53 52 24 23 29 43 23 350 340 334 335 337 343 345 3 38 87 102 62 37 30 13 19 23 20 20 21 21 22 27 19 14 16 18
251 245 233 235 234 235 222 231 222 215 210 235 251 254 252 255 241 248 202 260 303 292 286 272 236 194 219 230 269 272 264 263 239 226 200 197 207 261 255 269 293 311 305 303 330 323 352 336 359 45 42 39 41 25 14 49 30 354 349 333 332 332 339 341 343 350 30 32 61 47 43 31 17 20 nan nan 19 21 21 21 24 18 6 9 12
254 252 245 242 250 243 235 235 235 233 255 249 246 256 259 267 270 254 242 282 298 305 279 255 240 214 190 220 245 274 266 272 278 286 262 228 257 286 285 284 292 306 311 312 300 323 0 23 6 11 8 7 6 36 25 6 359 349 341 338 335 334 335 343 348 352 359 356 42 24 33 32 24 nan nan nan nan 20 23 23 20 19 5 2 6
253 244 251 248 249 253 251 245 246 258 268 260 251 255 269 273 269 270 247 253 264 271 270 264 274 284 297 261 213 248 261 245 250 277 287 261 258 265 273 273 285 292 314 312 316 320 337 353 1 345 348 345 354 1 349 344 344 338 333 332 331 340 343 352 354 357 359 21 350 nan nan 30 nan nan nan 21 18 19 21 22 18 15 9 0 3
250 248 244 242 248 253 257 255 257 258 266 274 270 268 270 271 274 269 262 255 260 264 264 259 245 262 289 299 290 257 244 235 220 235 234 210 202 249 268 272 285 292 300 321 337 333 334 353 346 315 314 308 325 329 326 327 317 315 317 322 334 337 340 351 358 6 9 343 306 330 9 34 37 20 16 16 12 10 9 9 12 13 9 -0 1
250 254 249 241 247 250 252 251 255 257 258 262 270 269 268 272 281 278 271 269 269 265 262 261 254 254 266 275 269 266 264 271 262 240 234 224 238 254 249 231 227 241 275 293 307 318 315 321 298 257 271 293 286 300 307 303 304 305 306 319 320 325 327 336 353 357 346 336 333 332 342 356 6 1 3 2 6 1 358 2 5 9 6 356 357
253 254 249 248 247 250 251 252 251 254 257 260 263 264 263 263 268 272 268 264 263 267 263 265 271 269 267 268 272 274 272 275 275 273 264 250 246 240 255 249 263 271 258 246 253 266 276 275 274 290 281 283 290 280 285 286 291 308 311 304 311 324 323 329 347 351 346 345 349 5 12 16 17 0 8 47 23 1 360 4 10 12 10 353 350
263 258 254 252 252 253 252 252 250 249 253 256 258 260 261 265 265 264 265 266 265 266 260 250 245 246 254 259 263 272 278 276 276 270 267 264 268 269 270 265 260 264 264 264 261 259 254 257 268 267 279 283 273 289 286 275 277 274 292 304 297 309 314 325 335 341 343 339 344 343 349 358 350 350 0 359 14 21 22 15 15 10 13 345 345
265 262 258 258 257 258 256 257 256 252 258 260 262 263 261 264 263 263 263 263 267 267 263 258 253 251 248 250 257 266 272 281 289 279 272 274 270 272 273 281 279 276 273 270 272 272 269 271 271 276 279 280 293 290 278 285 282 300 306 294 304 313 317 308 317 328 339 344 340 333 338 344 340 331 336 344 349 357 355 8 357 14 11 351 346
252 250 257 257 255 255 257 257 256 254 246 237 220 207 267 264 268 269 263 260 260 266 270 269 266 264 258 252 249 252 255 257 269 292 298 295 294 289 285 278 275 271 270 272 273 276 279 279 284 288 285 290 294 293 295 298 297 298 285 286 287 299 295 304 316 321 333 340 331 325 327 332 333 330 333 340 343 339 338 336 344 354 355 354 349
250 251 250 249 247 245 248 248 245 244 255 265 273 248 211 262 274 273 270 268 268 271 269 270 268 268 266 263 260 254 259 271 265 264 265 275 315 307 293 288 284 276 276 275 275 280 282 285 285 285 290 289 290 292 296 296 296 299 306 301 306 302 304 303 304 310 322 325 330 321 320 326 329 330 329 333 333 330 327 329 323 329 345 352 352
253 254 254 252 252 250 251 252 251 250 251 257 249 238 241 245 242 255 267 266 271 271 271 274 274 272 272 271 268 269 266 267 267 269 270 264 289 302 297 292 292 293 291 286 283 279 281 283 283 288 288 293 291 289 291 293 297 295 299 300 306 307 307 308 309 310 316 311 321 314 316 320 324 325 320 323 322 320 315 297 279 276 304 343 352
252 254 253 250 249 250 252 255 261 259 256 261 255 257 252 250 257 256 248 260 267 267 271 270 267 266 264 264 260 261 267 259 260 260 263 263 262 277 280 282 282 287 291 292 291 290 286 288 289 285 290 287 287 290 291 289 288 290 294 298 303 304 308 308 308 305 304 308 314 314 309 312 315 314 310 314 310 308 305 295 258 250 258 293 339
249 248 250 251 250 249 250 255 262 263 259 253 258 266 266 265 265 264 259 251 253 260 264 263 261 261 260 259 260 259 257 258 258 260 261 259 257 262 265 268 270 271 279 289 295 301 294 289 287 288 288 288 293 289 289 288 284 290 294 298 299 301 306 312 310 310 308 305 311 305 308 309 310 306 307 309 306 306 303 293 278 276 261 265 295
255 255 253 252 252 255 258 258 258 261 259 254 261 263 263 266 270 272 267 262 254 253 255 256 257 261 263 263 263 262 263 262 256 254 259 261 263 265 266 267 270 272 275 279 278 281 286 291 293 295 292 289 294 298 296 294 297 299 299 300 299 305 313 308 306 308 305 305 301 297 307 304 306 305 307 306 306 307 307 305 301 287 276 279 290
251 255 254 254 255 254 255 259 262 263 257 248 250 258 262 260 265 273 275 275 265 256 254 256 257 258 262 263 263 262 261 258 248 246 250 256 258 261 265 267 268 270 270 272 276 278 274 276 283 288 290 286 283 290 291 291 291 293 291 288 289 299 300 294 294 291 296 298 294 303 308 306 306 299 301 305 305 305 305 307 302 291 282 273 283
250 252 254 256 258 260 262 264 266 263 260 252 250 257 262 261 262 269 273 273 269 262 260 260 258 257 259 261 259 259 260 258 252 250 247 251 257 256 257 260 263 263 262 261 259 268 266 267 270 275 279 283 288 295 298 299 301 295 291 288 292 290 283 284 288 287 291 290 301 296 303 309 299 295 299 302 301 302 303 303 303 300 290 290 287
255 255 254 257 259 263 267 270 270 269 262 254 253 256 260 263 265 262 264 268 268 270 269 265 262 258 253 256 259 258 259 258 254 251 247 256 259 259 258 257 257 259 261 258 259 260 258 258 258 258 267 279 287 288 293 299 303 296 292 287 287 280 283 285 286 288 292 296 300 302 301 301 296 297 296 298 298 301 298 301 301 303 302 298 290
255 254 254 257 257 259 262 266 270 265 260 257 257 258 258 258 259 260 260 260 266 270 273 270 266 263 258 254 255 258 261 262 259 257 253 256 260 260 261 262 261 261 262 258 260 261 262 264 265 265 269 269 272 274 275 272 279 289 290 290 286 285 287 287 288 290 293 299 299 292 290 297 293 298 294 287 291 295 301 295 295 300 302 305 302